Lid_Strength_Index
11 13 17 15 15 14 14 15 17 15 14 16 17 17 15 15 14 15 15 13 12 11 10 9 9 9 9 9 9 8 8 8 7 7 7 7 7 7 7 6 6 6 6 5
14 16 13 12 13 14 15 16 18 16 14 15 17 17 16 15 16 15 15 15 14 13 12 11 11 11 11 11 11 10 9 9 8 8 7 8 8 7 7 6 5 5 5 5
15 14 12 13 15 15 17 17 19 18 16 16 18 19 17 16 15 15 16 16 15 14 14 14 13 14 13 13 12 11 11 10 10 9 8 9 9 8 8 8 7 6 5 6
15 13 14 16 17 16 17 16 16 17 21 23 19 24 19 18 18 17 17 18 17 17 15 15 15 14 14 14 13 12 12 12 11 11 11 11 11 11 9 9 7 7 6 6
16 16 17 17 16 16 17 16 17 18 21 22 21 25 21 19 19 19 19 18 18 17 17 16 15 15 14 14 14 14 13 13 12 12 12 12 12 12 11 10 10 9 8 7
16 14 16 17 15 16 15 17 18 19 22 26 26 25 22 20 19 19 18 18 18 18 17 16 16 15 15 15 15 14 14 13 12 12 12 13 13 13 13 12 12 10 9 8
17 17 16 16 18 16 18 21 25 25 26 24 31 25 20 19 19 18 19 19 19 18 18 17 17 17 16 16 15 14 14 14 13 13 13 12 12 12 13 13 12 12 11 9
23 21 19 17 18 19 19 21 25 29 27 25 30 25 21 19 18 18 18 18 18 18 18 18 17 17 17 16 16 15 14 14 14 14 13 13 12 12 12 12 13 12 11 10
23 21 17 17 17 18 19 23 20 28 34 29 24 21 19 19 20 19 19 19 20 19 18 18 17 17 16 16 15 15 15 14 14 14 13 13 13 13 13 12 12 12 11 10
19 23 20 17 17 18 18 18 24 25 29 30 26 29 21 23 24 22 20 20 19 18 18 18 17 17 16 15 15 15 14 15 14 14 14 13 13 13 12 12 13 12 12 11
19 23 21 19 23 22 22 23 23 23 22 28 30 24 23 23 24 24 24 20 22 21 18 17 17 17 16 15 15 15 15 15 14 14 13 13 13 13 13 13 13 12 12 12
18 19 26 22 19 19 19 20 20 24 27 26 25 23 23 26 26 27 24 21 20 21 19 18 18 17 16 16 15 15 15 15 14 13 13 13 13 13 13 13 12 12 12 12
18 25 29 23 21 20 22 20 19 23 21 26 27 23 26 27 27 27 25 23 22 22 21 19 18 17 16 16 15 15 15 14 14 13 13 13 13 13 13 13 12 12 12 12
15 20 25 25 23 24 23 21 20 23 30 25 23 21 21 23 24 26 25 25 24 23 21 20 20 18 17 16 16 16 15 14 14 13 13 14 14 13 13 13 12 11 10 10
18 26 23 23 24 25 23 21 23 23 23 24 21 26 20 25 24 25 27 27 25 23 22 21 20 19 20 20 19 18 17 15 14 14 14 14 13 13 12 11 11 10 9 8
18 27 27 25 21 21 23 21 22 22 21 25 22 22 26 30 32 28 25 26 26 24 22 21 22 22 21 19 18 17 17 16 16 16 15 14 12 12 12 11 10 9 9 9
23 27 30 28 26 27 25 23 23 24 26 24 25 22 31 28 29 29 25 27 26 24 24 23 22 21 21 19 17 18 17 16 17 16 15 13 13 13 12 11 10 10 10 10
26 28 32 30 32 31 21 21 22 23 21 25 25 28 27 27 26 25 25 26 25 24 23 21 21 21 19 18 20 17 17 18 17 15 14 13 14 13 13 12 11 10 10 10
20 26 31 31 34 25 22 23 23 23 22 21 22 26 24 23 22 21 19 21 22 21 20 21 19 18 17 16 16 17 16 14 15 13 13 12 12 12 13 14 13 11 11 10
22 25 28 35 32 30 22 22 21 21 26 22 22 22 22 22 26 23 20 18 18 17 17 17 16 15 15 15 14 14 14 13 12 12 12 12 12 12 13 14 13 11 11 11
25 24 26 29 32 27 21 21 20 26 22 22 21 22 23 24 22 21 19 19 18 17 17 16 16 16 15 14 14 14 13 13 11 10 11 12 12 13 13 13 13 12 12 11
26 26 28 33 33 28 21 22 23 22 22 21 22 22 22 21 21 20 19 19 18 18 17 16 17 16 15 14 14 14 13 12 11 11 12 12 12 12 11 12 13 12 12 12
25 21 22 23 23 21 21 22 21 21 22 22 21 21 21 21 21 20 20 19 19 18 17 17 17 17 16 14 14 15 14 13 12 13 14 14 13 12 12 12 12 13 12 12
22 21 22 22 22 22 22 22 21 21 21 20 20 20 20 22 21 20 20 19 19 18 18 17 18 18 17 15 15 15 13 15 15 16 16 15 15 14 13 12 12 13 13 13
21 21 21 23 22 24 22 21 20 20 20 20 20 20 20 21 20 20 20 19 19 18 19 19 19 18 17 16 16 15 16 17 17 17 16 16 15 14 14 13 13 12 11 11
22 21 21 20 21 21 21 20 20 21 22 21 22 22 21 21 21 20 20 19 19 20 20 20 19 19 18 17 16 17 17 17 18 18 17 16 15 16 15 14 14 10 11 10